Location: Unspecified
(0.0000°N, 0.0000°E)
Time: 22:26:34
(UTC+00:00)

Hubble Space Telescope - Pass Details

Date: 18 July 2019
Orbit: 536 x 540 km, 28.5° (Epoch: 22 July)

Event Time Altitude Azimuth Distance (km) Brightness Sun altitude
Exits shadow 03:48:54 11° 117° (ESE) 1,691 3.7 -31.8°
Drops below altitude 10° 03:49:18 10° 113° (ESE) 1,782 3.9 -31.7°
Sets 03:52:16 0° 91° (E) 2,670 5.2 -31.0°
